Weather History for Viroqua, WI

Change the Weather History Date:

Saturday, October 13, 2012

  Actual Average (KLSE) Record (KLSE)
Temperature  
Mean Temperature 50 °F 51 °F  
Max Temperature 60 °F 61 °F 86 °F (1975)
Min Temperature 39 °F 41 °F 19 °F (1917)
Degree Days  
Heating Degree Days 16 14  
Month to date heating degree days 155  
Since 1 July heating degree days 315  
Cooling Degree Days 0 0  
Month to date cooling degree days 7  
Year to date cooling degree days 781  
Moisture  
Dew Point 51 °F    
Average Humidity 99    
Maximum Humidity 100    
Minimum Humidity 81    
Precipitation  
Precipitation 1.37 in 0.06 in 1.11 in (1890)
Month to date precipitation 1.01  
Year to date precipitation 28.53  
Snow  
Snow 0.00 in 0.00 in T in (2009)
Month to date snowfall 0.0  
Since 1 July snowfall 0.0  
Since 1 September snowfall 0.0  
Snow Depth -    
Sea Level Pressure  
Sea Level Pressure 29.84 in    
Wind  
Wind Speed 8 mph (SSE)    
Max Wind Speed 13 mph    
Max Gust Speed 17 mph    
Visibility 3 miles    
Events      
T = Trace of Precipitation, MM = Missing Value Source: NWS Daily Summary

Daily Weather History Graph

Daily Weather History Graph

Search for Another Location

Airport:

Trip Planner

Search our weather history database for the weather conditions in past years. The results will help you decide how hot, cold, wet, or windy it might be!

Date:

Astronomy

Oct. 13, 2012 Rise Set
Actual Time 7:15 AM CDT 6:22 PM CDT
Civil Twilight 6:47 AM CDT 6:51 PM CDT
Nautical Twilight 6:13 AM CDT 7:24 PM CDT
Astronomical Twilight 5:40 AM CDT 7:57 PM CDT
Moon 5:03 AM CDT (10/13) 5:08 PM CDT (10/13)
Length of Visible Light 12h 04m
Length of Day
11h 06m
Waning Crescent, 5% of the Moon is Illuminated
Oct 13
Waning Crescent
Oct 15
New
Oct 21
First Quarter
Oct 29
Full
Nov 6
Last Quarter

Hourly Weather History & Observations

Time (CDT) Temp. Windchill Dew Point Humidity Pressure Visibility Wind Dir Wind Speed Gust Speed Precip Events Conditions
1:15 AM 41.0 °F 35.8 °F 35.6 °F 81% 30.11 in 10.0 mi SSE 8.1 mph - 0.01 in   Overcast
1:35 AM 41.0 °F 35.8 °F 37.4 °F 87% 30.10 in 4.0 mi SSE 8.1 mph - 0.02 in   Overcast
1:55 AM 39.2 °F 33.0 °F 39.2 °F 100% 30.10 in 7.0 mi SSE 9.2 mph - 0.02 in   Overcast
2:15 AM 39.2 °F 33.0 °F 39.2 °F 100% 30.07 in 4.0 mi SE 9.2 mph - 0.02 in   Overcast
2:35 AM 39.2 °F 32.5 °F 39.2 °F 100% 30.05 in 10.0 mi SE 10.4 mph - 0.03 in   Overcast
2:55 AM 39.2 °F 34.2 °F 39.2 °F 100% 30.07 in 5.0 mi SSE 6.9 mph - 0.05 in   Overcast
3:15 AM 39.2 °F 33.0 °F 39.2 °F 100% 30.04 in 2.5 mi SSE 9.2 mph - 0.01 in   Overcast
3:35 AM 39.2 °F 33.0 °F 39.2 °F 100% 30.03 in 3.0 mi SE 9.2 mph - 0.01 in   Overcast
3:55 AM 39.2 °F 32.5 °F 39.2 °F 100% 30.00 in 3.0 mi SE 10.4 mph - 0.01 in   Overcast
4:15 AM 39.2 °F 33.0 °F 39.2 °F 100% 30.00 in 5.0 mi SE 9.2 mph - N/A   Overcast
4:35 AM 41.0 °F 34.3 °F 41.0 °F 100% 30.00 in 10.0 mi SSE 11.5 mph - N/A   Overcast
4:55 AM 41.0 °F 35.2 °F 41.0 °F 100% 29.99 in 10.0 mi SSE 9.2 mph - N/A   Overcast
5:15 AM 42.8 °F 38.0 °F 42.8 °F 100% 29.98 in 10.0 mi SSE 8.1 mph - N/A   Overcast
5:35 AM 41.0 °F 34.7 °F 41.0 °F 100% 29.97 in 10.0 mi SE 10.4 mph - N/A   Overcast
5:55 AM 42.8 °F 38.6 °F 42.8 °F 100% 29.96 in 7.0 mi SE 6.9 mph - N/A   Overcast
6:15 AM 42.8 °F 38.6 °F 42.8 °F 100% 29.95 in 10.0 mi SSE 6.9 mph - N/A   Overcast
6:35 AM 42.8 °F 37.5 °F 42.8 °F 100% 29.93 in 7.0 mi SSE 9.2 mph - N/A   Overcast
6:55 AM 42.8 °F 38.0 °F 42.8 °F 100% 29.91 in 4.0 mi SSE 8.1 mph - N/A   Overcast
7:15 AM 44.6 °F 39.2 °F 44.6 °F 100% 29.91 in 7.0 mi SSE 10.4 mph - N/A   Overcast
7:35 AM 44.6 °F 39.7 °F 44.6 °F 100% 29.89 in 7.0 mi SSE 9.2 mph - N/A   Overcast
7:55 AM 44.6 °F 39.2 °F 44.6 °F 100% 29.86 in 4.0 mi SSE 10.4 mph - N/A   Overcast
8:15 AM 44.6 °F 40.7 °F 44.6 °F 100% 29.86 in 0.5 mi SSE 6.9 mph - 0.24 in   Overcast
8:55 AM 46.4 °F 40.7 °F 46.4 °F 100% 29.91 in 0.8 mi South 12.7 mph 17.3 mph 0.62 in   Overcast
9:35 AM 46.4 °F 41.5 °F 46.4 °F 100% 29.89 in 1.0 mi South 10.4 mph - 0.34 in   Overcast
9:55 AM 48.2 °F - 48.2 °F 100% 29.87 in 0.5 mi South 8.1 mph - 0.51 in   Overcast
10:35 AM 50.0 °F - 50.0 °F 100% 29.82 in 3.0 mi SE 6.9 mph - 0.14 in   Overcast
10:55 AM 50.0 °F - 50.0 °F 100% 29.82 in 1.8 mi SE 6.9 mph - 0.15 in   Overcast
11:15 AM 50.0 °F - 50.0 °F 100% 29.83 in 2.0 mi South 4.6 mph - N/A   Overcast
11:35 AM 50.0 °F - 50.0 °F 100% 29.82 in 2.0 mi South 6.9 mph - N/A   Overcast
11:55 AM 51.8 °F - 51.8 °F 100% 29.82 in 1.0 mi South 5.8 mph - N/A   Overcast
12:35 PM 51.8 °F - 51.8 °F 100% 29.81 in 0.2 mi South 4.6 mph - N/A   Overcast
12:55 PM 53.6 °F - 53.6 °F 100% 29.79 in 0.2 mi SSE 5.8 mph - N/A   Overcast
1:15 PM 53.6 °F - 53.6 °F 100% 29.77 in 0.2 mi SSE 5.8 mph - N/A   Overcast
1:35 PM 53.6 °F - 53.6 °F 100% 29.75 in 0.2 mi SSE 5.8 mph - N/A   Overcast
1:55 PM 53.6 °F - 53.6 °F 100% 29.75 in 0.8 mi South 6.9 mph - N/A   Overcast
2:15 PM 55.4 °F - 55.4 °F 100% 29.75 in 1.5 mi South 5.8 mph - N/A   Overcast
2:35 PM 55.4 °F - 55.4 °F 100% 29.74 in 1.2 mi South 6.9 mph - N/A   Overcast
2:55 PM 55.4 °F - 55.4 °F 100% 29.73 in 1.2 mi SSE 6.9 mph - N/A   Overcast
3:35 PM 59.0 °F - 59.0 °F 100% 29.71 in 1.8 mi SSW 10.4 mph 16.1 mph N/A   Overcast
3:55 PM 59.0 °F - 59.0 °F 100% 29.71 in 1.8 mi SSW 11.5 mph 17.3 mph N/A   Overcast
4:15 PM 59.0 °F - 59.0 °F 100% 29.72 in 1.2 mi SSW 10.4 mph 17.3 mph N/A   Overcast
4:35 PM 59.0 °F - 59.0 °F 100% 29.72 in 1.2 mi SSW 9.2 mph - N/A   Overcast
4:55 PM 59.0 °F - 59.0 °F 100% 29.72 in 1.0 mi SSW 10.4 mph - N/A   Overcast
5:15 PM 59.0 °F - 59.0 °F 100% 29.71 in 1.0 mi SSW 10.4 mph 16.1 mph N/A   Overcast
5:35 PM 59.0 °F - 59.0 °F 100% 29.72 in 0.8 mi SSW 9.2 mph - N/A   Overcast
5:55 PM 59.0 °F - 59.0 °F 100% 29.73 in 1.2 mi SSW 8.1 mph - N/A   Overcast
6:15 PM 59.0 °F - 59.0 °F 100% 29.73 in 1.8 mi SW 5.8 mph - N/A   Overcast
6:35 PM 59.0 °F - 59.0 °F 100% 29.73 in 1.8 mi SSW 5.8 mph - N/A   Overcast
6:55 PM 59.0 °F - 59.0 °F 100% 29.74 in 3.0 mi South 4.6 mph - N/A   Overcast
7:35 PM 60.8 °F - 60.8 °F 100% 29.74 in 3.0 mi South 5.8 mph - N/A   Overcast
7:55 PM 60.8 °F - 60.8 °F 100% 29.74 in 3.0 mi South 6.9 mph - N/A   Overcast
8:35 PM 60.8 °F - 60.8 °F 100% 29.73 in 3.0 mi SSE 4.6 mph - N/A   Overcast
9:15 PM 60.8 °F - 60.8 °F 100% 29.71 in 3.0 mi SSE 4.6 mph - 0.01 in   Overcast
9:35 PM 60.8 °F - 60.8 °F 100% 29.72 in 2.5 mi South 4.6 mph - 0.01 in   Overcast
9:55 PM 60.8 °F - 60.8 °F 100% 29.72 in 2.0 mi SSE 4.6 mph - 0.01 in   Overcast
10:15 PM 60.8 °F - 60.8 °F 100% 29.72 in 1.8 mi South 5.8 mph - N/A   Overcast
10:35 PM 60.8 °F - 60.8 °F 100% 29.71 in 2.0 mi South 5.8 mph - N/A   Overcast
10:55 PM 60.8 °F - 60.8 °F 100% 29.71 in 2.0 mi South 5.8 mph - N/A   Overcast
11:35 PM 60.8 °F - 60.8 °F 100% 29.69 in 2.0 mi South 5.8 mph - N/A   Overcast